QPF
0.01 0.00 0.00 0.01 0.01 0.01 0.01 0.01 0.02 0.01 0.00 0.00 0.00 0.00 0.00 0.00 0.00 0.00 0.00 0.00 0.00 0.00 0.00 0.00 0.00 0.00 0.00 0.00 0.00 0.00 0.01 0.02 0.03 0.03 0.03 0.02 0.01 0.02 0.02 0.04 0.05 0.05 0.04 0.03
0.01 0.00 0.00 0.01 0.00 0.00 0.00 0.00 0.01 0.01 0.00 0.00 0.00 0.00 0.00 0.00 0.00 0.00 0.00 0.00 0.00 0.00 0.00 0.00 0.00 0.00 0.00 0.00 0.00 0.00 0.01 0.01 0.02 0.02 0.02 0.02 0.02 0.02 0.02 0.03 0.04 0.04 0.04 0.03
0.02 0.01 0.01 0.01 0.00 0.00 0.00 0.00 0.00 0.01 0.01 0.01 0.00 0.00 0.00 0.00 0.00 0.00 0.00 0.00 0.00 0.00 0.00 0.00 0.00 0.01 0.01 0.00 0.01 0.01 0.01 0.01 0.01 0.01 0.02 0.02 0.03 0.03 0.03 0.03 0.03 0.03 0.04 0.03
0.04 0.02 0.03 0.01 0.00 0.00 0.00 0.01 0.01 0.01 0.01 0.01 0.01 0.00 0.00 0.00 0.00 0.00 0.00 0.00 0.00 0.00 0.00 0.00 0.01 0.01 0.01 0.01 0.01 0.01 0.01 0.01 0.01 0.01 0.02 0.02 0.02 0.03 0.03 0.03 0.03 0.03 0.03 0.03
0.05 0.03 0.01 0.00 0.00 0.01 0.01 0.01 0.01 0.01 0.01 0.01 0.00 0.01 0.01 0.00 0.01 0.00 0.00 0.00 0.00 0.00 0.00 0.01 0.01 0.02 0.02 0.02 0.02 0.02 0.02 0.01 0.01 0.01 0.02 0.02 0.02 0.02 0.03 0.03 0.03 0.02 0.02 0.02
0.06 0.05 0.02 0.01 0.00 0.00 0.00 0.01 0.01 0.01 0.01 0.01 0.01 0.01 0.01 0.00 0.00 0.00 0.00 0.00 0.00 0.00 0.01 0.01 0.01 0.02 0.02 0.02 0.02 0.02 0.02 0.02 0.02 0.02 0.02 0.02 0.02 0.02 0.02 0.02 0.03 0.03 0.02 0.02
0.05 0.04 0.02 0.01 0.00 0.00 0.01 0.01 0.00 0.00 0.01 0.01 0.01 0.01 0.01 0.00 0.00 0.00 0.00 0.00 0.00 0.01 0.01 0.01 0.01 0.01 0.02 0.02 0.02 0.02 0.02 0.02 0.02 0.02 0.02 0.02 0.02 0.02 0.02 0.02 0.02 0.02 0.02 0.02
0.03 0.05 0.02 0.00 0.00 0.01 0.01 0.00 0.01 0.01 0.01 0.01 0.01 0.00 0.01 0.01 0.00 0.00 0.00 0.00 0.01 0.01 0.01 0.01 0.01 0.01 0.01 0.01 0.02 0.02 0.02 0.02 0.02 0.02 0.02 0.02 0.02 0.02 0.03 0.02 0.02 0.02 0.02 0.02
0.02 0.02 0.01 0.00 0.00 0.01 0.01 0.01 0.01 0.01 0.01 0.01 0.01 0.01 0.01 0.01 0.01 0.01 0.01 0.01 0.01 0.01 0.01 0.01 0.01 0.01 0.02 0.02 0.02 0.02 0.02 0.02 0.02 0.01 0.02 0.02 0.02 0.02 0.02 0.02 0.02 0.03 0.03 0.03
0.02 0.01 0.01 0.01 0.01 0.01 0.01 0.01 0.01 0.01 0.01 0.01 0.01 0.01 0.01 0.01 0.01 0.01 0.01 0.01 0.01 0.01 0.01 0.01 0.01 0.01 0.01 0.01 0.01 0.02 0.02 0.02 0.02 0.02 0.01 0.02 0.02 0.03 0.03 0.03 0.02 0.02 0.02 0.02
0.02 0.01 0.01 0.01 0.01 0.01 0.01 0.01 0.01 0.01 0.01 0.01 0.01 0.01 0.01 0.01 0.01 0.01 0.01 0.01 0.01 0.01 0.01 0.01 0.01 0.01 0.01 0.01 0.01 0.01 0.01 0.01 0.01 0.01 0.01 0.01 0.02 0.03 0.04 0.04 0.04 0.04 0.03 0.03
0.02 0.01 0.01 0.01 0.01 0.01 0.01 0.01 0.01 0.01 0.01 0.01 0.01 0.01 0.01 0.01 0.01 0.01 0.01 0.01 0.01 0.01 0.01 0.02 0.02 0.01 0.01 0.01 0.01 0.01 0.01 0.01 0.01 0.01 0.01 0.02 0.02 0.02 0.03 0.04 0.04 0.04 0.04 0.04
0.02 0.01 0.01 0.02 0.02 0.01 0.01 0.01 0.01 0.00 0.00 0.00 0.00 0.00 0.01 0.01 0.01 0.01 0.01 0.01 0.01 0.02 0.02 0.02 0.02 0.01 0.01 0.01 0.01 0.01 0.01 0.01 0.01 0.01 0.01 0.02 0.02 0.03 0.03 0.03 0.04 0.04 0.04 0.04
0.02 0.02 0.02 0.02 0.01 0.01 0.01 0.00 0.00 0.00 0.00 0.00 0.00 0.00 0.00 0.01 0.01 0.01 0.01 0.01 0.02 0.02 0.01 0.01 0.01 0.01 0.01 0.01 0.01 0.01 0.01 0.01 0.01 0.01 0.01 0.02 0.02 0.03 0.03 0.03 0.03 0.04 0.05 0.05
0.02 0.02 0.01 0.01 0.01 0.01 0.00 0.00 0.00 0.00 0.00 0.00 0.00 0.00 0.00 0.01 0.01 0.01 0.01 0.01 0.01 0.01 0.01 0.01 0.01 0.01 0.01 0.01 0.01 0.01 0.01 0.01 0.01 0.01 0.02 0.02 0.02 0.02 0.03 0.03 0.04 0.04 0.04 0.05
0.02 0.01 0.01 0.01 0.01 0.00 0.00 0.00 0.00 0.00 0.00 0.00 0.00 0.00 0.01 0.01 0.01 0.01 0.01 0.01 0.01 0.01 0.01 0.01 0.01 0.01 0.01 0.01 0.01 0.01 0.01 0.01 0.01 0.01 0.02 0.01 0.02 0.02 0.02 0.03 0.03 0.04 0.04 0.04
0.01 0.01 0.01 0.00 0.00 0.00 0.00 0.00 0.00 0.00 0.00 0.00 0.00 0.01 0.01 0.01 0.01 0.01 0.01 0.01 0.01 0.01 0.01 0.01 0.01 0.01 0.01 0.01 0.01 0.01 0.01 0.01 0.01 0.01 0.01 0.02 0.02 0.02 0.02 0.02 0.02 0.02 0.02 0.03
0.00 0.00 0.00 0.00 0.00 0.00 0.00 0.00 0.00 0.00 0.00 0.00 0.00 0.01 0.01 0.01 0.01 0.01 0.02 0.01 0.01 0.01 0.01 0.01 0.01 0.01 0.01 0.01 0.01 0.01 0.01 0.01 0.01 0.01 0.01 0.01 0.01 0.01 0.01 0.01 0.01 0.02 0.02 0.02
0.00 0.00 0.00 0.00 0.00 0.00 0.00 0.00 0.00 0.00 0.00 0.00 0.01 0.01 0.01 0.01 0.02 0.01 0.01 0.01 0.01 0.01 0.01 0.01 0.01 0.01 0.01 0.01 0.01 0.01 0.01 0.01 0.01 0.01 0.01 0.01 0.01 0.01 0.01 0.01 0.01 0.01 0.02 0.02
0.00 0.00 0.00 0.01 0.01 0.01 0.01 0.01 0.00 0.00 0.00 0.01 0.01 0.01 0.01 0.01 0.01 0.01 0.01 0.01 0.01 0.01 0.01 0.01 0.01 0.01 0.01 0.01 0.01 0.01 0.01 0.01 0.01 0.01 0.01 0.01 0.01 0.01 0.01 0.01 0.01 0.01 0.02 0.02
0.00 0.00 0.01 0.01 0.01 0.01 0.01 0.01 0.01 0.01 0.01 0.01 0.01 0.01 0.01 0.01 0.01 0.01 0.01 0.01 0.01 0.01 0.01 0.01 0.01 0.01 0.01 0.01 0.01 0.01 0.01 0.01 0.01 0.01 0.01 0.01 0.01 0.01 0.01 0.01 0.01 0.01 0.01 0.02
0.00 0.01 0.01 0.01 0.01 0.01 0.01 0.01 0.01 0.01 0.01 0.01 0.01 0.01 0.01 0.01 0.01 0.01 0.00 0.01 0.01 0.01 0.01 0.01 0.01 0.01 0.01 0.02 0.02 0.01 0.01 0.01 0.01 0.01 0.01 0.01 0.01 0.01 0.01 0.01 0.01 0.01 0.01 0.02
0.01 0.01 0.01 0.01 0.01 0.01 0.01 0.01 0.01 0.01 0.01 0.01 0.01 0.01 0.00 0.00 0.00 0.00 0.01 0.00 0.01 0.01 0.01 0.01 0.01 0.01 0.02 0.02 0.01 0.01 0.01 0.01 0.01 0.01 0.01 0.01 0.01 0.01 0.01 0.01 0.01 0.01 0.01 0.02
0.01 0.01 0.01 0.01 0.01 0.01 0.01 0.01 0.01 0.00 0.00 0.00 0.00 0.00 0.00 0.00 0.00 0.00 0.01 0.01 0.01 0.01 0.01 0.01 0.01 0.01 0.01 0.01 0.01 0.01 0.01 0.01 0.01 0.01 0.01 0.01 0.01 0.01 0.01 0.01 0.01 0.01 0.01 0.01
0.01 0.01 0.01 0.01 0.01 0.00 0.00 0.00 0.00 0.00 0.00 0.00 0.00 0.00 0.00 0.00 0.01 0.00 0.00 0.00 0.00 0.01 0.01 0.01 0.01 0.01 0.01 0.01 0.01 0.01 0.01 0.01 0.01 0.01 0.01 0.01 0.01 0.01 0.01 0.01 0.01 0.01 0.01 0.01
0.01 0.01 0.01 0.01 0.01 0.00 0.00 0.00 0.00 0.00 0.00 0.00 0.00 0.00 0.00 0.00 0.00 0.00 0.00 0.00 0.00 0.00 0.01 0.00 0.00 0.01 0.01 0.01 0.01 0.01 0.01 0.01 0.01 0.01 0.01 0.01 0.01 0.01 0.01 0.01 0.01 0.01 0.01 0.01
0.01 0.01 0.01 0.00 0.00 0.00 0.00 0.00 0.00 0.00 0.00 0.00 0.00 0.00 0.00 0.00 0.00 0.00 0.00 0.00 0.00 0.00 0.00 0.00 0.01 0.01 0.01 0.01 0.01 0.01 0.01 0.01 0.01 0.01 0.01 0.01 0.01 0.01 0.01 0.01 0.01 0.01 0.01 0.01
MSLP
1034.33 1034.60 1034.76 1034.79 1034.69 1034.43 1034.05 1033.55 1032.96 1032.33 1031.69 1031.10 1030.60 1030.22 1029.97 1029.85 1029.84 1029.92 1030.05 1030.21 1030.35 1030.46 1030.53 1030.53 1030.48 1030.37 1030.19 1029.94 1029.60 1029.15 1028.61 1027.95 1027.18 1026.34 1025.45 1024.55 1023.69 1022.90 1022.22 1021.66 1021.19 1020.80 1020.45 1020.09
1034.67 1034.73 1034.65 1034.43 1034.08 1033.64 1033.13 1032.58 1032.04 1031.54 1031.09 1030.73 1030.47 1030.31 1030.25 1030.26 1030.33 1030.43 1030.54 1030.65 1030.72 1030.76 1030.75 1030.70 1030.59 1030.43 1030.21 1029.92 1029.53 1029.05 1028.46 1027.76 1026.96 1026.08 1025.15 1024.21 1023.29 1022.45 1021.70 1021.05 1020.51 1020.07 1019.69 1019.34
1034.98 1034.84 1034.52 1034.05 1033.49 1032.86 1032.23 1031.65 1031.14 1030.73 1030.44 1030.27 1030.22 1030.24 1030.34 1030.47 1030.61 1030.75 1030.86 1030.94 1030.97 1030.96 1030.90 1030.80 1030.65 1030.44 1030.18 1029.83 1029.40 1028.86 1028.23 1027.49 1026.66 1025.76 1024.82 1023.86 1022.93 1022.05 1021.25 1020.55 1019.94 1019.44 1019.01 1018.64
1035.15 1034.82 1034.31 1033.65 1032.90 1032.14 1031.43 1030.81 1030.33 1030.01 1029.84 1029.82 1029.91 1030.08 1030.30 1030.51 1030.72 1030.88 1031.00 1031.06 1031.07 1031.03 1030.95 1030.81 1030.62 1030.37 1030.05 1029.65 1029.16 1028.57 1027.89 1027.11 1026.27 1025.36 1024.42 1023.47 1022.55 1021.67 1020.85 1020.10 1019.45 1018.88 1018.40 1017.98
1035.05 1034.59 1033.94 1033.16 1032.31 1031.48 1030.73 1030.12 1029.69 1029.44 1029.37 1029.45 1029.65 1029.91 1030.20 1030.47 1030.70 1030.88 1030.99 1031.05 1031.04 1030.98 1030.87 1030.70 1030.48 1030.18 1029.80 1029.34 1028.78 1028.13 1027.40 1026.59 1025.73 1024.82 1023.90 1022.98 1022.08 1021.22 1020.41 1019.65 1018.96 1018.34 1017.79 1017.31
1034.59 1034.06 1033.35 1032.53 1031.67 1030.85 1030.14 1029.59 1029.23 1029.07 1029.08 1029.23 1029.49 1029.80 1030.11 1030.39 1030.62 1030.78 1030.88 1030.91 1030.89 1030.81 1030.67 1030.47 1030.20 1029.85 1029.42 1028.88 1028.25 1027.53 1026.74 1025.89 1025.01 1024.11 1023.22 1022.33 1021.47 1020.65 1019.86 1019.10 1018.39 1017.72 1017.12 1016.57
1033.73 1033.20 1032.52 1031.75 1030.96 1030.24 1029.64 1029.20 1028.95 1028.88 1028.97 1029.18 1029.46 1029.78 1030.07 1030.33 1030.52 1030.65 1030.70 1030.70 1030.64 1030.52 1030.35 1030.10 1029.78 1029.37 1028.86 1028.25 1027.54 1026.75 1025.90 1025.01 1024.10 1023.21 1022.33 1021.49 1020.68 1019.89 1019.13 1018.40 1017.68 1016.98 1016.33 1015.72
1032.52 1032.05 1031.46 1030.82 1030.20 1029.64 1029.21 1028.93 1028.81 1028.84 1029.01 1029.26 1029.55 1029.84 1030.10 1030.30 1030.43 1030.49 1030.49 1030.42 1030.31 1030.14 1029.91 1029.61 1029.22 1028.73 1028.14 1027.44 1026.65 1025.79 1024.87 1023.94 1023.01 1022.11 1021.26 1020.45 1019.68 1018.94 1018.22 1017.50 1016.79 1016.08 1015.39 1014.73
1031.07 1030.71 1030.28 1029.83 1029.41 1029.07 1028.84 1028.74 1028.77 1028.92 1029.15 1029.42 1029.71 1029.96 1030.16 1030.29 1030.34 1030.32 1030.24 1030.10 1029.91 1029.67 1029.37 1028.99 1028.52 1027.95 1027.27 1026.48 1025.61 1024.67 1023.69 1022.71 1021.76 1020.86 1020.02 1019.23 1018.50 1017.80 1017.11 1016.42 1015.73 1015.02 1014.31 1013.62
1029.56 1029.34 1029.10 1028.86 1028.67 1028.56 1028.55 1028.63 1028.80 1029.05 1029.33 1029.62 1029.89 1030.10 1030.23 1030.28 1030.24 1030.14 1029.97 1029.75 1029.47 1029.14 1028.74 1028.27 1027.71 1027.04 1026.27 1025.40 1024.44 1023.44 1022.41 1021.40 1020.42 1019.52 1018.68 1017.91 1017.20 1016.53 1015.87 1015.21 1014.53 1013.83 1013.12 1012.42
1028.19 1028.12 1028.06 1028.03 1028.07 1028.17 1028.34 1028.58 1028.87 1029.19 1029.51 1029.80 1030.04 1030.19 1030.26 1030.23 1030.12 1029.93 1029.68 1029.36 1028.99 1028.56 1028.07 1027.49 1026.82 1026.06 1025.20 1024.25 1023.23 1022.17 1021.11 1020.06 1019.08 1018.16 1017.33 1016.57 1015.87 1015.21 1014.56 1013.91 1013.24 1012.56 1011.85 1011.16
1027.10 1027.17 1027.28 1027.44 1027.65 1027.91 1028.23 1028.58 1028.94 1029.31 1029.64 1029.92 1030.12 1030.22 1030.23 1030.14 1029.96 1029.70 1029.36 1028.96 1028.49 1027.96 1027.36 1026.68 1025.92 1025.06 1024.12 1023.10 1022.03 1020.94 1019.85 1018.80 1017.81 1016.90 1016.06 1015.30 1014.60 1013.93 1013.28 1012.62 1011.95 1011.26 1010.56 1009.86
1026.38 1026.56 1026.80 1027.10 1027.43 1027.81 1028.20 1028.61 1029.00 1029.37 1029.69 1029.94 1030.10 1030.16 1030.12 1029.98 1029.75 1029.42 1029.02 1028.54 1027.99 1027.36 1026.66 1025.88 1025.02 1024.08 1023.07 1022.01 1020.91 1019.81 1018.72 1017.67 1016.69 1015.78 1014.94 1014.17 1013.45 1012.76 1012.08 1011.39 1010.69 1009.98 1009.26 1008.56
1026.00 1026.28 1026.61 1026.99 1027.39 1027.81 1028.23 1028.64 1029.02 1029.36 1029.64 1029.85 1029.97 1030.00 1029.93 1029.75 1029.48 1029.12 1028.66 1028.11 1027.48 1026.77 1025.98 1025.11 1024.17 1023.17 1022.11 1021.02 1019.92 1018.82 1017.75 1016.73 1015.77 1014.87 1014.04 1013.25 1012.49 1011.75 1011.02 1010.27 1009.51 1008.75 1007.99 1007.25
1025.90 1026.24 1026.62 1027.04 1027.46 1027.88 1028.27 1028.64 1028.98 1029.26 1029.49 1029.65 1029.74 1029.74 1029.65 1029.46 1029.16 1028.77 1028.27 1027.67 1026.98 1026.19 1025.32 1024.38 1023.38 1022.33 1021.25 1020.16 1019.07 1018.01 1016.98 1016.00 1015.08 1014.20 1013.35 1012.54 1011.74 1010.94 1010.13 1009.30 1008.45 1007.60 1006.75 1005.94
1025.96 1026.34 1026.74 1027.16 1027.56 1027.93 1028.27 1028.58 1028.84 1029.06 1029.23 1029.35 1029.41 1029.39 1029.29 1029.09 1028.79 1028.38 1027.85 1027.21 1026.46 1025.62 1024.69 1023.70 1022.65 1021.58 1020.50 1019.43 1018.38 1017.37 1016.41 1015.48 1014.60 1013.74 1012.90 1012.06 1011.21 1010.33 1009.42 1008.47 1007.51 1006.54 1005.58 1004.65
1026.09 1026.48 1026.88 1027.27 1027.62 1027.93 1028.20 1028.42 1028.61 1028.77 1028.88 1028.96 1029.00 1028.97 1028.86 1028.66 1028.36 1027.94 1027.39 1026.73 1025.94 1025.05 1024.09 1023.06 1022.00 1020.93 1019.87 1018.84 1017.86 1016.92 1016.02 1015.17 1014.33 1013.50 1012.66 1011.79 1010.87 1009.91 1008.89 1007.82 1006.72 1005.61 1004.50 1003.43
1026.21 1026.61 1026.99 1027.33 1027.62 1027.86 1028.05 1028.19 1028.31 1028.40 1028.47 1028.52 1028.53 1028.50 1028.39 1028.20 1027.89 1027.46 1026.90 1026.22 1025.41 1024.50 1023.52 1022.48 1021.43 1020.39 1019.38 1018.41 1017.50 1016.64 1015.82 1015.03 1014.24 1013.44 1012.60 1011.70 1010.72 1009.67 1008.54 1007.34 1006.10 1004.83 1003.57 1002.34
1026.32 1026.70 1027.05 1027.34 1027.56 1027.72 1027.83 1027.91 1027.96 1028.00 1028.03 1028.05 1028.05 1028.01 1027.90 1027.71 1027.40 1026.97 1026.41 1025.71 1024.90 1023.99 1023.01 1022.00 1020.98 1019.98 1019.04 1018.15 1017.32 1016.54 1015.80 1015.07 1014.33 1013.55 1012.70 1011.76 1010.73 1009.60 1008.37 1007.05 1005.68 1004.26 1002.85 1001.46
1026.43 1026.79 1027.09 1027.32 1027.47 1027.56 1027.60 1027.61 1027.61 1027.60 1027.60 1027.60 1027.59 1027.54 1027.43 1027.23 1026.92 1026.49 1025.93 1025.24 1024.44 1023.55 1022.60 1021.63 1020.67 1019.74 1018.87 1018.06 1017.32 1016.62 1015.94 1015.26 1014.56 1013.79 1012.93 1011.96 1010.88 1009.68 1008.36 1006.95 1005.47 1003.94 1002.39 1000.86
1026.58 1026.90 1027.14 1027.30 1027.38 1027.40 1027.38 1027.33 1027.28 1027.25 1027.22 1027.20 1027.17 1027.11 1026.99 1026.79 1026.48 1026.05 1025.50 1024.83 1024.06 1023.21 1022.32 1021.41 1020.53 1019.69 1018.90 1018.17 1017.50 1016.87 1016.25 1015.60 1014.91 1014.14 1013.27 1012.27 1011.15 1009.89 1008.52 1007.04 1005.49 1003.87 1002.23 1000.60
1026.77 1027.02 1027.20 1027.29 1027.30 1027.26 1027.18 1027.09 1027.00 1026.94 1026.89 1026.85 1026.81 1026.74 1026.61 1026.40 1026.10 1025.68 1025.15 1024.51 1023.78 1023.00 1022.18 1021.36 1020.57 1019.82 1019.12 1018.47 1017.87 1017.29 1016.70 1016.07 1015.38 1014.60 1013.70 1012.67 1011.51 1010.23 1008.82 1007.31 1005.72 1004.07 1002.39 1000.69
1026.95 1027.14 1027.24 1027.25 1027.20 1027.10 1026.98 1026.85 1026.74 1026.66 1026.59 1026.54 1026.49 1026.41 1026.28 1026.07 1025.77 1025.37 1024.88 1024.29 1023.62 1022.92 1022.19 1021.46 1020.77 1020.11 1019.50 1018.93 1018.38 1017.83 1017.26 1016.63 1015.93 1015.12 1014.19 1013.14 1011.96 1010.66 1009.25 1007.74 1006.16 1004.52 1002.84 1001.14
1027.06 1027.16 1027.19 1027.13 1027.02 1026.88 1026.73 1026.58 1026.46 1026.37 1026.31 1026.25 1026.20 1026.11 1025.98 1025.78 1025.50 1025.13 1024.67 1024.14 1023.55 1022.93 1022.30 1021.69 1021.09 1020.53 1020.00 1019.49 1018.99 1018.46 1017.89 1017.25 1016.52 1015.69 1014.73 1013.66 1012.46 1011.17 1009.78 1008.31 1006.77 1005.18 1003.55 1001.89
1027.00 1027.03 1026.98 1026.87 1026.72 1026.55 1026.38 1026.24 1026.13 1026.04 1025.99 1025.94 1025.89 1025.82 1025.69 1025.50 1025.24 1024.91 1024.50 1024.04 1023.53 1023.01 1022.48 1021.97 1021.47 1021.00 1020.55 1020.10 1019.63 1019.12 1018.54 1017.89 1017.13 1016.27 1015.29 1014.20 1013.01 1011.74 1010.38 1008.98 1007.51 1006.01 1004.47 1002.89
1026.73 1026.68 1026.57 1026.42 1026.25 1026.07 1025.92 1025.79 1025.71 1025.65 1025.62 1025.60 1025.56 1025.50 1025.39 1025.22 1024.99 1024.70 1024.34 1023.95 1023.52 1023.09 1022.66 1022.24 1021.84 1021.46 1021.07 1020.67 1020.23 1019.74 1019.17 1018.50 1017.72 1016.84 1015.84 1014.76 1013.58 1012.34 1011.05 1009.72 1008.35 1006.95 1005.52 1004.06
1026.23 1026.12 1025.97 1025.80 1025.62 1025.47 1025.35 1025.26 1025.22 1025.20 1025.21 1025.22 1025.21 1025.17 1025.08 1024.94 1024.74 1024.48 1024.18 1023.84 1023.49 1023.14 1022.79 1022.46 1022.15 1021.83 1021.51 1021.16 1020.75 1020.28 1019.71 1019.04 1018.26 1017.37 1016.38 1015.31 1014.17 1012.98 1011.75 1010.50 1009.24 1007.96 1006.65 1005.32
Thickness
5393 5396 5389 5382 5378 5368 5360 5364 5364 5378 5381 5388 5381 5373 5367 5362 5356 5352 5349 5346 5343 5340 5338 5337 5336 5336 5336 5336 5337 5337 5339 5340 5343 5346 5349 5353 5357 5360 5363 5366 5371 5375 5378 5382
5377 5383 5377 5376 5377 5371 5365 5362 5362 5366 5371 5376 5366 5359 5353 5348 5343 5340 5337 5335 5332 5329 5328 5326 5325 5324 5324 5324 5325 5325 5326 5328 5330 5332 5336 5339 5342 5345 5348 5351 5355 5359 5363 5366
5370 5370 5362 5365 5375 5370 5364 5363 5357 5356 5363 5360 5351 5346 5339 5334 5330 5328 5325 5322 5320 5318 5317 5316 5314 5313 5312 5312 5312 5313 5314 5316 5317 5319 5322 5325 5328 5331 5334 5337 5341 5344 5347 5350
5355 5351 5349 5384 5377 5372 5363 5357 5351 5348 5347 5344 5337 5331 5327 5323 5318 5315 5312 5310 5309 5307 5305 5304 5302 5301 5300 5300 5300 5300 5301 5302 5304 5306 5308 5311 5313 5316 5319 5322 5325 5329 5333 5336
5343 5341 5357 5373 5362 5353 5346 5344 5343 5339 5335 5329 5322 5320 5317 5313 5307 5303 5299 5298 5298 5296 5294 5292 5291 5289 5287 5287 5287 5287 5288 5289 5290 5291 5294 5296 5299 5302 5304 5307 5310 5313 5318 5322
5337 5332 5338 5365 5346 5342 5337 5329 5333 5327 5320 5314 5310 5306 5309 5302 5296 5293 5290 5288 5286 5284 5282 5279 5278 5276 5275 5274 5274 5274 5275 5275 5276 5278 5281 5283 5285 5288 5291 5293 5296 5299 5304 5308
5326 5325 5338 5340 5328 5329 5323 5330 5321 5315 5308 5301 5295 5293 5291 5288 5284 5281 5278 5276 5274 5272 5269 5267 5265 5264 5263 5262 5262 5262 5263 5264 5265 5266 5268 5270 5273 5276 5278 5281 5284 5286 5291 5295
5320 5319 5331 5318 5313 5313 5314 5309 5304 5300 5294 5288 5283 5280 5278 5275 5272 5269 5265 5263 5261 5259 5257 5256 5254 5252 5252 5251 5251 5251 5251 5253 5254 5255 5256 5259 5261 5263 5265 5267 5270 5273 5277 5281
5322 5326 5318 5305 5302 5299 5296 5292 5290 5286 5280 5275 5271 5268 5265 5262 5259 5257 5254 5252 5250 5247 5246 5245 5243 5241 5241 5241 5241 5241 5241 5242 5243 5244 5246 5247 5249 5251 5253 5254 5257 5260 5264 5268
5307 5308 5303 5295 5291 5287 5284 5280 5277 5272 5267 5263 5258 5256 5253 5250 5248 5246 5244 5241 5239 5236 5235 5233 5232 5231 5230 5231 5231 5231 5232 5232 5233 5234 5235 5236 5238 5240 5241 5243 5245 5249 5251 5255
5292 5291 5289 5287 5282 5278 5272 5268 5264 5261 5257 5253 5248 5245 5242 5239 5237 5235 5234 5230 5228 5225 5224 5222 5221 5220 5221 5220 5220 5220 5221 5222 5223 5224 5225 5226 5227 5228 5230 5232 5234 5237 5239 5241
5292 5285 5277 5277 5272 5268 5263 5259 5254 5249 5246 5243 5238 5234 5231 5228 5225 5223 5221 5219 5217 5215 5213 5212 5211 5210 5210 5210 5210 5210 5211 5212 5212 5213 5214 5215 5216 5217 5219 5221 5224 5227 5230 5232
5276 5272 5267 5264 5260 5256 5252 5247 5243 5238 5235 5231 5228 5224 5220 5217 5215 5212 5210 5208 5205 5204 5202 5201 5200 5200 5200 5200 5200 5200 5200 5201 5202 5203 5203 5204 5205 5206 5208 5211 5213 5216 5219 5221
5265 5260 5256 5253 5248 5244 5240 5236 5232 5228 5224 5221 5217 5214 5210 5207 5204 5202 5199 5198 5196 5194 5192 5191 5190 5190 5190 5189 5189 5189 5190 5191 5192 5192 5193 5193 5194 5195 5197 5198 5200 5203 5206 5209
5254 5250 5244 5240 5236 5233 5230 5226 5221 5217 5214 5210 5207 5203 5199 5196 5194 5192 5190 5189 5187 5184 5183 5181 5180 5180 5180 5180 5179 5179 5180 5181 5182 5182 5183 5183 5184 5185 5186 5187 5188 5190 5193 5196
5241 5237 5233 5229 5226 5222 5218 5214 5210 5207 5203 5200 5196 5192 5189 5187 5184 5182 5180 5178 5176 5174 5173 5171 5171 5171 5170 5170 5170 5170 5171 5173 5173 5173 5173 5173 5173 5174 5175 5175 5177 5178 5180 5183
5229 5226 5222 5219 5215 5211 5207 5203 5200 5196 5193 5189 5185 5182 5179 5176 5174 5172 5169 5168 5166 5164 5163 5162 5162 5162 5161 5161 5161 5161 5161 5162 5163 5163 5162 5162 5162 5163 5164 5164 5165 5167 5169 5172
5221 5218 5214 5210 5206 5201 5198 5194 5190 5187 5182 5179 5175 5171 5168 5165 5163 5161 5159 5158 5156 5155 5155 5154 5154 5154 5153 5153 5152 5152 5152 5152 5152 5152 5152 5152 5152 5152 5153 5153 5155 5156 5158 5161
5210 5207 5203 5201 5196 5192 5188 5184 5180 5176 5173 5169 5165 5161 5158 5156 5154 5153 5150 5149 5147 5147 5147 5146 5147 5146 5144 5144 5145 5144 5143 5143 5143 5142 5143 5144 5143 5142 5142 5143 5144 5145 5147 5150
5200 5197 5194 5190 5186 5182 5178 5174 5170 5166 5163 5159 5155 5152 5149 5147 5146 5144 5142 5141 5140 5140 5139 5139 5139 5137 5137 5136 5137 5135 5134 5134 5133 5133 5133 5132 5132 5132 5132 5133 5134 5135 5137 5139
5190 5187 5184 5180 5176 5172 5169 5165 5161 5157 5154 5151 5147 5144 5141 5139 5138 5136 5134 5133 5134 5133 5133 5133 5131 5130 5129 5129 5129 5127 5126 5125 5124 5123 5123 5122 5122 5122 5122 5123 5124 5125 5127 5128
5179 5176 5173 5169 5165 5162 5158 5155 5152 5149 5146 5143 5140 5136 5134 5132 5130 5129 5127 5126 5126 5126 5125 5124 5123 5123 5123 5122 5120 5118 5117 5116 5115 5114 5113 5112 5112 5111 5111 5112 5113 5114 5115 5117
5168 5165 5162 5159 5155 5151 5148 5145 5143 5140 5137 5135 5132 5129 5127 5125 5123 5122 5120 5119 5119 5119 5118 5116 5116 5117 5116 5113 5111 5109 5108 5106 5105 5104 5103 5102 5102 5101 5101 5101 5102 5103 5104 5106
5158 5155 5151 5148 5145 5142 5139 5137 5134 5132 5129 5126 5124 5122 5120 5118 5117 5115 5113 5113 5112 5112 5110 5109 5109 5108 5107 5103 5101 5100 5098 5097 5096 5095 5094 5094 5093 5092 5092 5092 5093 5094 5095 5096
5147 5144 5141 5138 5136 5134 5131 5128 5125 5123 5121 5119 5116 5115 5113 5111 5109 5107 5106 5105 5104 5103 5101 5100 5100 5099 5096 5094 5092 5090 5089 5088 5087 5087 5086 5085 5084 5084 5084 5084 5084 5085 5086 5087
5139 5136 5133 5131 5128 5126 5123 5120 5117 5115 5113 5111 5109 5107 5105 5103 5102 5100 5098 5097 5096 5095 5093 5091 5090 5089 5087 5085 5083 5082 5081 5080 5079 5078 5077 5077 5076 5076 5076 5076 5077 5077 5078 5080
5131 5128 5125 5123 5120 5118 5115 5112 5109 5107 5105 5102 5100 5099 5098 5096 5095 5093 5091 5090 5088 5087 5085 5084 5082 5080 5079 5078 5076 5075 5074 5073 5072 5071 5071 5070 5070 5070 5070 5070 5071 5072 5073 5075